[[{"header":{"parameterUnit":"m.s-1","parameterCategory":1,"la1":30.2991,"la2":30.254,"lo1":-89.0895,"lo2":-89.0444,"dy":0.0017,"dx":0.0017,"nx":28,"ny":28,"refTime":"2025-08-09T03:00:00:Z","depth":0,"parameterNumber":2,"parameterNumberName":"U-component_of_WINDS"},"data":[0,0,0,0,0,0,0,0,0,0,0,0,0,0,0,0,0,0,0,0,0,0,0,0,0,0,0,0,0,0,0,0,0,0,0,0,0,0,0,0,0,0,0,0,0,0,0,0,0,0,0,0,0,0,0,0,0,0,-6.1732,-6.1733,0,-6.1828,-6.1829,-6.183,-6.1706,-6.1701,-6.1697,-6.1692,-6.179,-6.1796,-6.1803,0,0,0,0,0,0,0,0,0,0,0,0,0,-6.1436,-6.1442,-6.1731,-6.1733,-6.1734,-6.1828,-6.1829,-6.1831,-6.1706,-6.1701,-6.1695,-6.169,-6.1788,-6.1796,-6.1804,0,0,0,0,0,0,0,0,0,0,0,0,0,-6.1552,-6.1444,-6.1731,-6.1683,-6.168,-6.1828,-6.183,-6.1831,-6.1708,-6.1701,-6.1694,-6.1688,-6.1785,-6.1795,-6.1805,-6.2004,0,0,-6.1836,-6.1841,0,0,0,0,0,0,0,0,-6.1546,-6.1563,-6.1689,-6.1687,-6.1683,-6.1748,-6.1761,-6.1889,-6.1709,-6.1697,-6.1692,-6.1684,-6.1781,-6.1791,-6.1824,-6.2009,-6.2013,-6.1837,-6.1843,-6.1848,-6.1851,0,0,0,0,0,0,0,-6.1538,-6.1558,-6.177,-6.1691,-6.1688,-6.1656,-6.1665,-6.1785,-6.1776,-6.1698,-6.1689,-6.1702,-6.1778,-6.1815,-6.1826,-6.2014,-6.1837,-6.1846,-6.1852,-6.1856,-6.2365,-6.2372,0,0,0,0,0,0,-6.1536,-6.1552,-6.1767,-6.1773,-6.1596,-6.1667,-6.1677,-6.1734,-6.1774,-6.1774,-6.1708,-6.1696,-6.1801,-6.1814,-6.1829,-6.2063,-6.1848,-6.1857,-6.1863,-6.2358,-6.2367,-6.2375,0,0,0,0,0,0,-6.153,-6.1556,-6.1763,-6.166,-6.1684,-6.1679,-6.1744,-6.174,-6.1776,-6.1782,-6.178,-6.1747,-6.1796,-6.1814,-6.1961,-6.2065,-6.1862,-6.1871,-6.2349,-6.2361,-6.2371,-6.2535,0,0,0,0,0,0,-6.1522,-6.1555,-6.1631,-6.1663,-6.169,-6.1895,-6.1751,-6.1746,-6.1794,-6.1779,-6.1818,-6.1818,-6.1792,-6.1947,-6.1971,-6.2075,-6.1879,-6.234,-6.2354,-6.2367,-6.252,-6.255,-6.2576,0,0,0,0,0,-6.1512,-6.1673,-6.1636,-6.1662,-6.1785,-6.1901,-6.1916,-6.1884,-6.1803,-6.1879,-6.1883,-6.1817,-6.205,-6.1963,-6.1989,-6.2098,-6.2333,-6.235,-6.2366,-6.2507,-6.2544,-6.2575,0,0,0,0,0,0,-6.1653,-6.1677,-6.1635,-6.1812,-6.1855,-6.188,-6.1974,-6.1924,-6.1991,-6.1974,-6.193,-6.194,-6.2097,-6.2112,-6.2014,-6.2292,-6.2178,-6.2201,-6.2276,-6.2311,-6.2338,-6.233,-6.1888,0,0,0,0,0,-6.1705,-6.1798,-6.1813,-6.1967,-6.1991,-6.198,-6.2029,-6.2,-6.2043,-6.2061,-6.2075,-6.2119,-6.2202,-6.2257,-6.2334,-6.2522,-6.2528,-6.261,-6.2638,-6.266,-6.268,-6.2779,-6.2815,-6.2429,-6.2429,-6.2429,0,0,-6.1813,-6.1837,-6.1898,-6.1996,-6.2027,-6.2122,-6.1996,-6.2103,-6.2173,-6.2077,-6.2216,-6.2229,-6.2274,-6.2442,-6.2517,-6.246,-6.2788,-6.2682,-6.27,-6.2707,-6.28,-6.2836,-6.2869,-6.2441,-6.2438,-6.2437,0,0,-6.2058,-6.2087,-6.2217,-6.225,-6.2298,-6.2289,-6.2321,-6.2353,-6.2358,-6.2497,-6.2426,-6.2509,-6.2653,-6.2689,-6.2725,-6.2984,-6.2925,-6.301,-6.3155,-6.3252,-6.3282,-6.3309,-6.3399,-6.3433,-6.303,-6.3031,-6.3031,0,-6.2185,-6.2328,-6.2291,-6.2403,-6.2447,-6.2365,-6.2496,-6.253,-6.2601,-6.2633,-6.2569,-6.2747,-6.2772,-6.2946,-6.301,-6.3043,-6.3076,-6.3005,-6.3281,-6.3307,-6.3332,-6.3417,-6.3452,-6.3041,-6.3039,-6.3038,-6.3037,0,-6.2481,-6.2581,-6.2681,-6.2751,-6.2807,-6.2929,-6.2909,-6.297,-6.2937,-6.2934,-6.3076,-6.3104,-6.3184,-6.3224,-6.3192,-6.3394,-6.3357,-6.3288,-6.3172,-6.3379,-6.3459,-6.3491,-6.3055,-6.3051,-6.3048,-6.3046,0,0,-6.2817,-6.2865,-6.2902,-6.2932,-6.2979,-6.3055,-6.3173,-6.3251,-6.3304,-6.3355,-6.3451,-6.3576,-6.3512,-6.3554,-6.3525,-6.3611,-6.3812,-6.3531,-6.3531,-6.358,-6.4033,-6.4084,-6.4123,-6.3774,-6.378,-6.3785,-6.4029,0,-6.306,-6.3263,-6.3233,-6.3429,-6.3519,-6.3442,-6.3544,-6.3584,-6.3585,-6.3661,-6.3662,-6.375,-6.366,-6.3685,-6.3766,-6.377,-6.3902,-6.3752,-6.3861,-6.3866,-6.385,-6.4164,-6.4218,-6.4447,-6.406,-6.4065,-6.4069,0,-6.3371,-6.3434,-6.3639,-6.367,-6.3707,-6.3799,-6.3868,-6.3943,-6.3986,-6.398,-6.4028,-6.3984,-6.41,-6.3984,-6.4142,-6.4042,-6.4085,-6.4093,-6.4101,-6.4109,-6.3979,-6.4178,-6.452,-6.4553,-6.4118,-6.4114,-6.4111,0,-6.3593,-6.3729,-6.3868,-6.3897,-6.3938,-6.4004,-6.4024,-6.406,-6.4109,-6.417,-6.4201,-6.4275,-6.4315,-6.4372,-6.4349,-6.4267,-6.4512,-6.4394,-6.451,-6.4511,-6.4563,-6.456,-6.4914,-6.4595,-6.4594,-6.4594,-6.4593,0,-6.3867,-6.3994,-6.3968,-6.4054,-6.4194,-6.4159,-6.4298,-6.4309,-6.4342,-6.4427,-6.4366,-6.4447,-6.4413,-6.4492,-6.4475,-6.4608,-6.4627,-6.4625,-6.4619,-6.463,-6.463,-6.4656,-6.4639,-6.4603,-6.4601,-6.4599,-6.4597,0,-6.4138,-6.4126,-6.4272,-6.4299,-6.4308,-6.4411,-6.4433,-6.4513,-6.4509,-6.4618,-6.4642,-6.4637,-6.4727,-6.471,-6.4809,-6.4798,-6.4964,-6.4939,-6.495,-6.4943,-6.5059,-6.5047,-6.5441,-6.549,-6.5141,-6.5144,-6.5147,0,-6.4312,-6.4408,-6.4446,-6.4499,-6.4523,-6.461,-6.4659,-6.4628,-6.4682,-6.4738,-6.4811,-6.4896,-6.4961,-6.5109,-6.5113,-6.5189,-6.5164,-6.5297,-6.5175,-6.5182,-6.5164,-6.5158,-6.5166,-6.532,-6.5324,-6.5327,-6.533,0,-6.4623,-6.4612,-6.4686,-6.4758,-6.4819,-6.4875,-6.4924,-6.4971,-6.4944,-6.5008,-6.5099,-6.515,-6.5252,-6.5336,-6.5406,-6.5426,-6.5374,-6.5369,-6.5399,-6.541,-6.5412,-6.5411,-6.5013,-6.5359,-6.5356,-6.5354,-6.5353,-6.5351,-6.4849,-6.493,-6.4969,-6.5053,-6.5087,-6.5135,-6.5211,-6.5217,-6.5293,-6.5373,-6.535,-6.5453,-6.5493,-6.5582,-6.561,-6.569,-6.564,-6.5685,-6.5696,-6.5707,-6.572,-6.5401,-6.5703,-6.5702,-6.5701,-6.57,-6.57,0,-6.5154,-6.5176,-6.5254,-6.5324,-6.5391,-6.5337,-6.5388,-6.5447,-6.5539,-6.5581,-6.5647,-6.5751,-6.5833,-6.5844,-6.5921,-6.5983,-6.5961,-6.6004,-6.5998,-6.6003,-6.5761,-6.5726,-6.6021,-6.6021,-6.602,-6.602,-6.602,-6.602,-6.5321,-6.5455,-6.5449,-6.5599,-6.5619,-6.572,-6.5754,-6.5797,-6.583,-6.5949,-6.6017,-6.6024,-6.6053,-6.6132,-6.6204,-6.6205,-6.6236,-6.6288,-6.628,-6.6053,-6.602,-6.599,-6.5957,-6.6295,-6.6296,-6.6515,-6.6517,-6.6519]},{"header":{"parameterUnit":"m.s-1","parameterCategory":1,"la1":30.2991,"la2":30.254,"lo1":-89.0895,"lo2":-89.0444,"dy":0.0017,"dx":0.0017,"nx":28,"ny":28,"refTime":"2025-08-09T03:00:00:Z","depth":0,"parameterNumber":3,"parameterNumberName":"V-component_of_WINDS"},"data":[0,0,0,0,0,0,0,0,0,0,0,0,0,0,0,0,0,0,0,0,0,0,0,0,0,0,0,0,0,0,0,0,0,0,0,0,0,0,0,0,0,0,0,0,0,0,0,0,0,0,0,0,0,0,0,0,0,0,-0.2238,-0.2238,0,-0.2241,-0.2241,-0.2241,-0.2225,-0.2224,-0.2224,-0.2223,-0.2226,-0.2227,-0.2227,0,0,0,0,0,0,0,0,0,0,0,0,0,-0.2218,-0.2218,-0.2238,-0.2238,-0.2238,-0.2241,-0.2241,-0.2241,-0.2225,-0.2224,-0.2224,-0.2223,-0.2226,-0.2227,-0.2227,0,0,0,0,0,0,0,0,0,0,0,0,0,-0.2224,-0.2218,-0.2238,-0.2231,-0.223,-0.2241,-0.2241,-0.2241,-0.2225,-0.2224,-0.2223,-0.2223,-0.2226,-0.2226,-0.2227,-0.2246,0,0,-0.223,-0.223,0,0,0,0,0,0,0,0,-0.2224,-0.2225,-0.2232,-0.2231,-0.223,-0.2232,-0.2235,-0.2243,-0.2225,-0.2227,-0.2223,-0.2222,-0.2229,-0.2229,-0.2231,-0.2246,-0.2246,-0.223,-0.223,-0.223,-0.2231,0,0,0,0,0,0,0,-0.2223,-0.2225,-0.2239,-0.2232,-0.2231,-0.2226,-0.2227,-0.2236,-0.2232,-0.2227,-0.2225,-0.2226,-0.2228,-0.223,-0.2231,-0.2246,-0.223,-0.223,-0.2231,-0.2231,-0.2275,-0.2276,0,0,0,0,0,0,-0.2224,-0.2224,-0.2239,-0.224,-0.2225,-0.2227,-0.2228,-0.2232,-0.2231,-0.2231,-0.2227,-0.2225,-0.2229,-0.223,-0.2231,-0.2253,-0.223,-0.2231,-0.2232,-0.2275,-0.2275,-0.2276,0,0,0,0,0,0,-0.2224,-0.2226,-0.2239,-0.2232,-0.2233,-0.2229,-0.2234,-0.2233,-0.2235,-0.2231,-0.223,-0.223,-0.2229,-0.223,-0.2242,-0.2252,-0.2231,-0.2232,-0.2274,-0.2275,-0.2276,-0.2296,0,0,0,0,0,0,-0.2223,-0.2225,-0.2233,-0.2232,-0.2233,-0.2251,-0.2234,-0.2233,-0.2236,-0.2234,-0.2234,-0.2234,-0.2228,-0.2241,-0.2243,-0.2253,-0.2233,-0.2273,-0.2274,-0.2275,-0.2294,-0.2298,-0.23,0,0,0,0,0,-0.2222,-0.2239,-0.2234,-0.2236,-0.2243,-0.2252,-0.2252,-0.2246,-0.2237,-0.2244,-0.2242,-0.2234,-0.2251,-0.2242,-0.2244,-0.2255,-0.2272,-0.2274,-0.2275,-0.2293,-0.2297,-0.23,0,0,0,0,0,0,-0.2242,-0.2239,-0.2233,-0.225,-0.2251,-0.2249,-0.2258,-0.2251,-0.2255,-0.2253,-0.2245,-0.2245,-0.2258,-0.2257,-0.2248,-0.2272,-0.226,-0.2262,-0.2273,-0.2276,-0.2279,-0.228,-0.2233,0,0,0,0,0,-0.2248,-0.2256,-0.2252,-0.2267,-0.2268,-0.2263,-0.2266,-0.2261,-0.2262,-0.2263,-0.2261,-0.2262,-0.2268,-0.2272,-0.2277,-0.2294,-0.2293,-0.2302,-0.2305,-0.2307,-0.2309,-0.2317,-0.2321,-0.2281,-0.2281,-0.2281,0,0,-0.2262,-0.2261,-0.2266,-0.2271,-0.2272,-0.2279,-0.2264,-0.2273,-0.2278,-0.2264,-0.2276,-0.2274,-0.2275,-0.2289,-0.2295,-0.2289,-0.232,-0.2309,-0.2311,-0.2312,-0.2319,-0.2323,-0.2326,-0.2283,-0.2282,-0.2282,0,0,-0.229,-0.229,-0.2302,-0.2302,-0.2303,-0.2299,-0.2301,-0.23,-0.2298,-0.2309,-0.2299,-0.2304,-0.2314,-0.2315,-0.2317,-0.2342,-0.2335,-0.2344,-0.236,-0.2368,-0.2371,-0.2374,-0.2383,-0.2386,-0.2346,-0.2346,-0.2346,0,-0.2306,-0.2318,-0.2309,-0.2318,-0.2321,-0.2308,-0.2319,-0.232,-0.2322,-0.2324,-0.2316,-0.2327,-0.2327,-0.2341,-0.2347,-0.2348,-0.2351,-0.2345,-0.2371,-0.2374,-0.2376,-0.2385,-0.2388,-0.2347,-0.2347,-0.2347,-0.2347,0,-0.2338,-0.2345,-0.2355,-0.2357,-0.236,-0.237,-0.2363,-0.2367,-0.2361,-0.2357,-0.2368,-0.2366,-0.237,-0.2373,-0.2367,-0.2385,-0.2381,-0.2372,-0.236,-0.2381,-0.2389,-0.2392,-0.2349,-0.2348,-0.2348,-0.2348,0,0,-0.2381,-0.2376,-0.238,-0.238,-0.2378,-0.2384,-0.2393,-0.2396,-0.24,-0.2401,-0.2408,-0.2415,-0.2407,-0.2408,-0.2402,-0.2409,-0.2429,-0.2399,-0.2399,-0.2405,-0.2448,-0.2456,-0.246,-0.2423,-0.2423,-0.2424,-0.2448,0,-0.2408,-0.2424,-0.2416,-0.2433,-0.2439,-0.2425,-0.2433,-0.2432,-0.2429,-0.2433,-0.2429,-0.2434,-0.2422,-0.2423,-0.2429,-0.2425,-0.2438,-0.2423,-0.243,-0.243,-0.2431,-0.2464,-0.2472,-0.2495,-0.2451,-0.2452,-0.2452,0,-0.2443,-0.2445,-0.2462,-0.2458,-0.246,-0.2468,-0.2469,-0.2474,-0.2472,-0.2469,-0.247,-0.2461,-0.2469,-0.2455,-0.2466,-0.2456,-0.2458,-0.2456,-0.2457,-0.2458,-0.2443,-0.2467,-0.2502,-0.2506,-0.2457,-0.2457,-0.2456,0,-0.2473,-0.248,-0.2491,-0.2491,-0.2486,-0.2492,-0.249,-0.2487,-0.2489,-0.249,-0.2492,-0.2493,-0.2495,-0.2496,-0.2488,-0.2479,-0.2499,-0.2485,-0.2497,-0.2497,-0.2503,-0.2503,-0.254,-0.2503,-0.2502,-0.2502,-0.2502,0,-0.2505,-0.2517,-0.2504,-0.2511,-0.2522,-0.2512,-0.2524,-0.252,-0.2518,-0.2523,-0.2511,-0.2516,-0.2505,-0.2509,-0.2502,-0.2512,-0.2512,-0.2509,-0.2508,-0.2511,-0.2512,-0.2513,-0.2512,-0.2503,-0.2503,-0.2503,-0.2503,0,-0.2542,-0.2534,-0.2545,-0.2539,-0.2537,-0.2546,-0.254,-0.2546,-0.254,-0.2547,-0.2548,-0.254,-0.2544,-0.2535,-0.2538,-0.2533,-0.2547,-0.2542,-0.2547,-0.2546,-0.2559,-0.2558,-0.2599,-0.2604,-0.2562,-0.2563,-0.2563,0,-0.2564,-0.2572,-0.2566,-0.2569,-0.2567,-0.2572,-0.2573,-0.2562,-0.2565,-0.2562,-0.2568,-0.257,-0.2572,-0.2578,-0.2572,-0.2574,-0.257,-0.2584,-0.257,-0.2573,-0.257,-0.257,-0.2571,-0.2587,-0.2588,-0.2588,-0.2589,0,-0.2603,-0.2598,-0.2601,-0.2602,-0.2604,-0.2605,-0.2604,-0.2607,-0.2595,-0.2598,-0.2601,-0.2602,-0.2604,-0.2607,-0.2606,-0.2604,-0.2594,-0.2592,-0.2595,-0.26,-0.2603,-0.2602,-0.2556,-0.2592,-0.2592,-0.2592,-0.2591,-0.2591,-0.2634,-0.264,-0.2636,-0.2639,-0.2637,-0.2636,-0.2641,-0.2635,-0.2638,-0.2639,-0.2632,-0.2636,-0.2633,-0.2631,-0.263,-0.2633,-0.2626,-0.263,-0.2632,-0.2633,-0.2635,-0.2601,-0.2632,-0.2632,-0.2632,-0.2632,-0.2632,0,-0.2673,-0.2669,-0.2672,-0.2671,-0.2673,-0.2663,-0.2661,-0.2664,-0.2668,-0.2665,-0.2666,-0.267,-0.2671,-0.2664,-0.2665,-0.2669,-0.2664,-0.2669,-0.267,-0.2669,-0.2641,-0.2639,-0.2673,-0.2673,-0.2673,-0.2673,-0.2673,-0.2673,-0.2694,-0.2704,-0.2698,-0.2706,-0.2702,-0.2706,-0.2706,-0.2705,-0.2703,-0.2707,-0.2708,-0.2703,-0.2698,-0.2698,-0.2699,-0.2697,-0.2698,-0.2705,-0.2701,-0.2675,-0.2671,-0.2667,-0.2665,-0.2705,-0.2705,-0.2729,-0.2729,-0.2729]}]]